This is the latest recevied weather packets stored in our database for station/object KC1TEM-13. If no packets are shown the sender has not sent any weather packets the latest 10 day(s).
| Time | Temp. | Humidity | Pressure | Rain* | Wind** | Luminosity | Snow |
|---|---|---|---|---|---|---|---|
| 1788044029 | 20.56° C | 65% | 1020.6 hPa | 0 mm | - | 13 W/m² | - |
| 1788043724 | 21.11° C | 62% | 1020.8 hPa | 0 mm | - | 15 W/m² | - |
| 1788043419 | 21.11° C | 62% | 1020.7 hPa | 0 mm | - | 17 W/m² | - |
| 1788043118 | 21.11° C | 59% | 1020.8 hPa | 0 mm | - | 18 W/m² | - |
| 1788042814 | 21.67° C | 59% | 1020.6 hPa | 0 mm | - | 19 W/m² | - |
| 1788042513 | 21.67° C | 58% | 1020.7 hPa | 0 mm | - | 21 W/m² | - |
| 1788042208 | 22.22° C | 55% | 1021 hPa | 0 mm | - | 22 W/m² | - |
| 1788041904 | 22.22° C | 50% | 1020.8 hPa | 0 mm | - | 23 W/m² | - |
| 1788041599 | 22.78° C | 51% | 1020.9 hPa | 0 mm | - | 25 W/m² | - |
| 1788041299 | 22.78° C | 50% | 1021 hPa | 0 mm | - | 26 W/m² | - |
| 1788040997 | 22.78° C | 47% | 1021.1 hPa | 0 mm | - | 28 W/m² | - |
| 1788040697 | 23.33° C | 49% | 1020.9 hPa | 0 mm | - | 27 W/m² | - |
| 1788040392 | 23.89° C | 46% | 1020.9 hPa | 0 mm | - | 29 W/m² | - |
| 1788040087 | 23.89° C | 43% | 1021 hPa | 0 mm | - | 30 W/m² | - |
| 1788039781 | 23.89° C | 45% | 1021.1 hPa | 0 mm | - | 31 W/m² | - |
| 1788039476 | 23.89° C | 42% | 1021.1 hPa | 0 mm | - | 41 W/m² | - |
| 1788039172 | 23.89° C | 42% | 1021 hPa | 0 mm | - | 33 W/m² | - |
| 1788038867 | 24.44° C | 42% | 1020.9 hPa | 0 mm | - | 34 W/m² | - |
| 1788038563 | 24.44° C | 42% | 1021.1 hPa | 0 mm | - | 36 W/m² | - |
| 1788038261 | 25.56° C | 41% | 1021 hPa | 0 mm | - | 35 W/m² | - |
| 1788037957 | 26.11° C | 40% | 1021.1 hPa | 0 mm | - | 38 W/m² | - |
| 1788037651 | 26.67° C | 37% | 1021 hPa | 0 mm | - | 225 W/m² | - |
| 1788037346 | 26.11° C | 39% | 1021.3 hPa | 0 mm | - | 254 W/m² | - |
| 1788037045 | 26.11° C | 39% | 1021.3 hPa | 0 mm | - | 269 W/m² | - |
| 1788036741 | 25.56° C | 39% | 1021 hPa | 0 mm | - | 291 W/m² | - |
* Rain latest hour (hover to see other rain measurements)
** Current wind speed in m/s (hover to see current wind gust speed)